Torna al catalogo

STARLINK-30833

AttivoComunicazioniVLEO
NORAD 58152·PAYLOAD·🇺🇸 United States

Lanciato Oct 29, 2023 da Vandenberg Space Force Base

Loading…

Prossimi Passaggi (prossime 24 ore)

TLE

AggiornatoSource: CelesTrak SupGP

Epoca: Sep 14, 2026, 21:58 UTC

1 58152C 23166C   26257.91576389  .00037827  00000+0  12168-2 0  2572
2 58152  53.1598  59.7149 0001173  81.0939 292.6071 15.31672101    16

Traccia STARLINK-30833 in tempo reale con AllMySat

Download on the App Store